This is the latest recevied weather packets stored in our database for station/object KE5YIM-13. If no packets are shown the sender has not sent any weather packets the latest 10 day(s).
| Time | Temp. | Humidity | Pressure | Rain* | Wind** | Luminosity | Snow |
|---|---|---|---|---|---|---|---|
| 1777721835 | 8.89° C | 97% | 1012.5 hPa | 0 mm | - | 69 W/m² | - |
| 1777721533 | 8.89° C | 97% | 1012.7 hPa | 0 mm | - | 55 W/m² | - |
| 1777721231 | 8.89° C | 97% | 1013.1 hPa | 1.78 mm | - | 60 W/m² | - |
| 1777720928 | 8.89° C | 97% | 1012.9 hPa | 1.78 mm | - | 32 W/m² | - |
| 1777720625 | 8.89° C | 97% | 1013.3 hPa | 0 mm | - | 10 W/m² | - |
| 1777720323 | 8.89° C | 97% | 1013.4 hPa | 0 mm | - | 25 W/m² | - |
| 1777720021 | 8.89° C | 97% | 1013.3 hPa | 0 mm | - | 31 W/m² | - |
| 1777719717 | 8.89° C | 97% | 1013.2 hPa | 0 mm | - | 19 W/m² | - |
| 1777719415 | 8.89° C | 97% | 1013 hPa | 0 mm | - | 12 W/m² | - |
| 1777719112 | 8.89° C | 97% | 1013.4 hPa | 0 mm | - | 5 W/m² | - |
| 1777718809 | 8.89° C | 97% | 1013.2 hPa | 0 mm | - | 7 W/m² | - |
| 1777718507 | 8.89° C | 97% | 1013.3 hPa | 0 mm | - | 25 W/m² | - |
| 1777718204 | 8.89° C | 97% | 1013.4 hPa | 0 mm | - | 29 W/m² | - |
| 1777717902 | 8.33° C | 97% | 1013.2 hPa | 0 mm | - | 9 W/m² | - |
| 1777717598 | 8.33° C | 97% | 1012.8 hPa | 0 mm | - | 16 W/m² | - |
| 1777717295 | 8.33° C | 97% | 1012.7 hPa | 0 mm | - | 8 W/m² | - |
| 1777716993 | 8.33° C | 97% | 1012.9 hPa | 0 mm | - | 8 W/m² | - |
| 1777716691 | 8.33° C | 97% | 1012.7 hPa | 0 mm | - | 3 W/m² | - |
| 1777716389 | 8.33° C | 97% | 1012.7 hPa | 0 mm | - | 2 W/m² | - |
| 1777716087 | 8.33° C | 96% | 1012.6 hPa | 0 mm | - | 3 W/m² | - |
| 1777715785 | 8.33° C | 96% | 1012.6 hPa | 0 mm | - | 4 W/m² | - |
| 1777715482 | 8.33° C | 96% | 1012.5 hPa | 0 mm | - | 2 W/m² | - |
| 1777715179 | 8.33° C | 96% | 1012.5 hPa | 0 mm | - | 1 W/m² | - |
| 1777714878 | 8.33° C | 96% | 1012.8 hPa | 0 mm | - | 0 W/m² | - |
| 1777714576 | 8.33° C | 96% | 1012.8 hPa | 0 mm | - | 0 W/m² | - |
* Rain latest hour (hover to see other rain measurements)
** Current wind speed in m/s (hover to see current wind gust speed)